Location: Trois-Rivi�res
(46.3500°N, 72.5500°W)
Time: 10:08:15
(UTC-05:00)

Vanguard 1 - Visible Passes

Search period start: 14 December 2017 00:00
Search period end: 24 December 2017 00:00
Orbit: 650 x 3833 km, 34.2° (Epoch: 13 December)

Date Brightness Start Highest point End Pass type
(mag) Time Alt. Az. Time Alt. Az. Time Alt. Az.
14 Dec 14.6 06:04:27 10° S 06:19:33 22° SE 06:32:17 10° E visible
15 Dec 14.5 06:22:55 10° SSW 06:40:23 28° SE 06:54:35 10° E visible
16 Dec 14.7 04:31:09 10° SSE 04:38:35 12° SE 04:45:45 10° ESE visible
16 Dec 14.3 06:42:10 10° SSW 07:01:16 34° SSE 07:16:22 10° E visible
17 Dec 14.5 04:46:15 10° SSE 04:59:07 18° SE 05:11:10 10° E visible
18 Dec 14.4 05:03:50 10° S 05:19:42 24° SE 05:34:21 10° E visible
19 Dec 14.3 05:22:29 10° SSW 05:40:23 30° SE 05:56:37 10° E visible
20 Dec 14.5 03:30:45 10° SSE 03:38:52 13° SE 03:47:04 10° ESE visible
20 Dec 14.1 05:41:49 10° SSW 06:01:09 36° SSE 06:18:25 10° E visible
21 Dec 14.3 03:46:23 10° SSE 03:59:12 19° SE 04:12:15 10° E visible
21 Dec 13.9 06:01:37 10° SSW 06:22:01 42° SSE 06:39:57 10° E visible
22 Dec 14.2 04:04:10 10° S 04:19:36 25° SE 04:35:25 10° E visible
22 Dec 13.8 06:21:47 10° SW 06:42:59 47° SSE 07:01:17 10° E visible
23 Dec 14.1 04:22:57 10° SSW 04:40:06 31° SE 04:57:45 10° E visible
23 Dec 13.7 06:42:16 10° SW 07:04:03 52° SSE 07:22:29 10° E visible
